Location: Muck Cross
(36.7179°N, 78.3678°W)
Time: 07:44:37
(UTC+00:00)

A-11 Canister half - Visible Passes

Search period start: 04 March 2024 00:00
Search period end: 14 March 2024 00:00
Orbit: 1526 x 1682 km, 47.3° (Epoch: 03 March)

Date Brightness Start Highest point End Pass type
(mag) Time Alt. Az. Time Alt. Az. Time Alt. Az.
04 Mar 9.6 01:48:41 10° W 01:57:53 48° NNW 02:01:00 37° NNE visible
04 Mar 10.5 03:55:29 10° WNW 03:59:18 26° NW 03:59:18 26° NW visible
04 Mar 9.1 23:20:27 10° SW 23:30:16 87° SE 23:39:48 10° ENE visible
05 Mar 9.6 01:26:49 10° W 01:36:04 49° NNW 01:40:35 30° NE visible
05 Mar 10.2 03:33:41 10° WNW 03:38:53 33° NW 03:38:53 33° NW visible
06 Mar 9.6 01:04:57 10° W 01:14:15 50° NNW 01:20:07 23° NE visible
06 Mar 9.9 03:11:52 10° WNW 03:18:25 40° NNW 03:18:25 40° NNW visible
07 Mar 9.6 00:43:05 10° W 00:52:26 51° NNW 00:59:37 18° NE visible
07 Mar 9.6 02:50:04 10° WNW 02:57:54 45° N 02:57:54 45° N visible
07 Mar 11.1 04:55:37 10° WNW 04:56:12 12° WNW 04:56:12 12° WNW visible
08 Mar 9.6 00:21:13 10° W 00:30:38 52° NNW 00:39:06 13° ENE visible
08 Mar 9.5 02:28:14 10° WNW 02:37:19 46° N 02:37:23 46° N visible
08 Mar 10.8 04:33:52 10° WNW 04:35:41 18° NW 04:35:41 18° NW visible
08 Mar 9.6 23:59:21 10° W 00:08:49 53° NNW 00:18:02 10° ENE visible
09 Mar 9.5 02:06:25 10° WNW 02:15:31 46° N 02:16:51 43° NNE visible
09 Mar 10.6 04:12:06 10° WNW 04:15:08 24° NW 04:15:08 24° NW visible
09 Mar 9.6 23:37:29 10° W 23:47:01 54° NNW 23:56:16 10° ENE visible
10 Mar 9.6 01:44:35 10° WNW 01:53:41 45° N 01:56:18 38° NE visible
10 Mar 10.2 03:50:20 10° WNW 03:54:35 31° NW 03:54:35 31° NW visible
11 Mar 9.6 01:22:44 10° WNW 01:31:52 45° N 01:35:44 32° NE visible
11 Mar 9.9 03:28:34 10° WNW 03:34:02 39° NW 03:34:02 39° NW visible
12 Mar 9.6 01:00:54 10° WNW 01:10:02 45° N 01:15:10 25° ENE visible
12 Mar 9.5 03:06:48 10° WNW 03:13:28 49° NW 03:13:28 49° NW visible
13 Mar 9.7 00:39:02 10° WNW 00:48:12 44° N 00:54:37 20° ENE visible
13 Mar 9.2 02:45:01 10° WNW 02:52:55 60° NNW 02:52:55 60° NNW visible
13 Mar 11.1 04:50:30 10° WNW 04:51:12 12° WNW 04:51:12 12° WNW visible
